H-2A R/B - Orbit

View from above orbital plane
View from above orbital plane
View from above satellite
View from above satellite

Ground track
Ground track

The orbit data is extracted from the following two-line orbital elements,

1 27601U 02056E   13137.84989515  .00000189  00000-0  85288-4 0  8085
2 27601 098.5062 224.1299 0072900 027.4001 110.6604 14.31141064544454
Epoch (UTC): 17 May 2013 20:23:50
Eccentricity: 0.0072900
inclination: 98.5062°
perigee height: 735 km
apogee height: 840 km
right ascension of ascending node: 224.1299°
argument of perigee: 27.4001°
revolutions per day: 14.31141064
mean anomaly at epoch: 110.6604°
orbit number at epoch: 54445

The dashed part of the orbit path shows where the satellite is in the earth's shadow,  

Developed and maintained by Chris Peat, Heavens-Above GmbH. Please read the updated FAQ before sending e-mail. Imprint. DLR